Hourly Weather Rublevo

Today, 20 April, Tuesday

Time Temperature Precipitation Wind Pressure Humidity
00:00 +4°C° 0 mm 4 mps 750 mmHg 66%
01:00 +4°C° 0 mm 4 mps 750 mmHg 65%
02:00 +4°C° 0 mm 3 mps 750 mmHg 67%
03:00 +3°C° 0 mm 3 mps 750 mmHg 70%
04:00 +3°C° 0 mm 4 mps 749 mmHg 72%
05:00 +1°C° 0 mm 4 mps 749 mmHg 74%
06:00 +1°C° 0 mm 4 mps 749 mmHg 79%
07:00 +1°C° 0 mm 4 mps 749 mmHg 84%
08:00 +1°C° 0 mm 4 mps 749 mmHg 89%
09:00 +3°C° 0 mm 4 mps 749 mmHg 81%
10:00 +5°C° 0 mm 5 mps 748 mmHg 74%
11:00 +6°C° 0 mm 5 mps 748 mmHg 66%
12:00 +7°C° 0 mm 5 mps 747 mmHg 64%
13:00 +7°C° 0 mm 5 mps 747 mmHg 61%
14:00 +8°C° 0 mm 5 mps 747 mmHg 58%
15:00 +7°C° 0 mm 5 mps 746 mmHg 65%
16:00 +6°C° 0 mm 5 mps 746 mmHg 71%
17:00 +5°C° 0 mm 5 mps 746 mmHg 77%
18:00 +3°C° 0 mm 5 mps 745 mmHg 82%
19:00 +3°C° 0 mm 4 mps 745 mmHg 86%
20:00 +3°C° 0 mm 4 mps 744 mmHg 91%
21:00 +3°C° 0.1 mm 4 mps 744 mmHg 92%
22:00 +3°C° 0.1 mm 4 mps 743 mmHg 93%
23:00 +3°C° 0.1 mm 4 mps 742 mmHg 93%

Tomorrow, 21 April, Wednesday

Time Temperature Precipitation Wind Pressure Humidity
00:00 +3°C° 0.4 mm 3 mps 741 mmHg 94%
01:00 +2°C° 0.4 mm 3 mps 740 mmHg 95%
02:00 +2°C° 0.4 mm 3 mps 740 mmHg 96%
03:00 +2°C° 0.7 mm 3 mps 739 mmHg 97%
04:00 +1°C° 0.7 mm 3 mps 738 mmHg 97%
05:00 +1°C° 0.7 mm 3 mps 737 mmHg 97%
06:00 +1°C° 0.8 mm 3 mps 737 mmHg 98%
07:00 +2°C° 0.8 mm 2 mps 736 mmHg 98%
08:00 +2°C° 0.8 mm 2 mps 736 mmHg 99%
09:00 +2°C° 0.2 mm 2 mps 736 mmHg 98%
10:00 +2°C° 0.2 mm 2 mps 736 mmHg 98%
11:00 +2°C° 0.2 mm 2 mps 736 mmHg 98%
12:00 +3°C° 0 mm 2 mps 736 mmHg 96%
13:00 +2°C° 0 mm 3 mps 736 mmHg 94%
14:00 +2°C° 0 mm 3 mps 737 mmHg 92%
15:00 +2°C° 0 mm 3 mps 737 mmHg 92%
16:00 +2°C° 0 mm 3 mps 737 mmHg 93%
17:00 +3°C° 0 mm 3 mps 738 mmHg 93%
18:00 +2°C° 0 mm 3 mps 738 mmHg 93%
19:00 +2°C° 0 mm 3 mps 739 mmHg 93%
20:00 +3°C° 0 mm 2 mps 739 mmHg 93%
21:00 +3°C° 0 mm 2 mps 739 mmHg 93%
22:00 +3°C° 0 mm 2 mps 739 mmHg 94%
23:00 +3°C° 0 mm 2 mps 740 mmHg 94%

Day after tomorrow, 22 April, Thursday

Time Temperature Precipitation Wind Pressure Humidity
00:00 +3°C° 0 mm 2 mps 740 mmHg 94%
01:00 +3°C° 0 mm 2 mps 740 mmHg 94%
02:00 +3°C° 0 mm 2 mps 740 mmHg 94%
03:00 +3°C° 0 mm 2 mps 741 mmHg 94%
04:00 +2°C° 0 mm 2 mps 741 mmHg 94%
05:00 +2°C° 0 mm 2 mps 741 mmHg 95%
06:00 +3°C° 0 mm 3 mps 741 mmHg 89%
07:00 +4°C° 0 mm 3 mps 742 mmHg 83%
08:00 +7°C° 0 mm 3 mps 742 mmHg 77%
09:00 +7°C° 0 mm 4 mps 742 mmHg 71%
10:00 +10°C° 0 mm 4 mps 742 mmHg 65%
11:00 +11°C° 0 mm 4 mps 742 mmHg 59%
12:00 +12°C° 0 mm 4 mps 742 mmHg 56%
13:00 +12°C° 0 mm 4 mps 742 mmHg 54%
14:00 +13°C° 0 mm 4 mps 742 mmHg 51%
15:00 +12°C° 0 mm 4 mps 742 mmHg 56%
16:00 +12°C° 0 mm 4 mps 742 mmHg 60%
17:00 +11°C° 0 mm 4 mps 742 mmHg 65%
18:00 +10°C° 0 mm 4 mps 742 mmHg 71%
19:00 +8°C° 0 mm 4 mps 742 mmHg 76%
20:00 +8°C° 0 mm 3 mps 742 mmHg 81%
21:00 +8°C° 0.1 mm 3 mps 742 mmHg 85%
22:00 +8°C° 0.1 mm 3 mps 742 mmHg 89%
23:00 +6°C° 0.1 mm 4 mps 742 mmHg 92%

23 April, Friday

Time Temperature Precipitation Wind Pressure Humidity
00:00 +7°C° 0 mm 3 mps 742 mmHg 94%
01:00 +5°C° 0 mm 3 mps 741 mmHg 95%
02:00 +5°C° 0 mm 3 mps 741 mmHg 96%
03:00 +5°C° 0 mm 3 mps 741 mmHg 94%
04:00 +5°C° 0 mm 4 mps 741 mmHg 91%
05:00 +6°C° 0 mm 4 mps 741 mmHg 88%
06:00 +7°C° 0 mm 5 mps 741 mmHg 85%
07:00 +8°C° 0 mm 5 mps 741 mmHg 82%
08:00 +9°C° 0 mm 6 mps 741 mmHg 79%
09:00 +9°C° 0.6 mm 5 mps 741 mmHg 81%
10:00 +8°C° 0.6 mm 4 mps 742 mmHg 83%
11:00 +7°C° 0.6 mm 4 mps 742 mmHg 86%
12:00 +8°C° 0.1 mm 3 mps 742 mmHg 84%
13:00 +8°C° 0.1 mm 3 mps 742 mmHg 83%
14:00 +7°C° 0.1 mm 2 mps 742 mmHg 82%
15:00 +7°C° 1.7 mm 2 mps 742 mmHg 85%
16:00 +6°C° 1.7 mm 2 mps 742 mmHg 87%
17:00 +6°C° 1.7 mm 2 mps 742 mmHg 89%
18:00 +6°C° 0 mm 1 mps 742 mmHg 91%
19:00 +6°C° 0 mm 1 mps 742 mmHg 92%
20:00 +5°C° 0 mm 1 mps 742 mmHg 94%
21:00 +5°C° 0.1 mm 1 mps 742 mmHg 94%
22:00 +6°C° 0.1 mm 1 mps 742 mmHg 93%
23:00 +6°C° 0.1 mm 1 mps 742 mmHg 93%

24 April, Saturday

Time Temperature Precipitation Wind Pressure Humidity
00:00 +6°C° 0.1 mm 1 mps 741 mmHg 90%
01:00 +5°C° 0.1 mm 1 mps 741 mmHg 88%
02:00 +5°C° 0.1 mm 1 mps 741 mmHg 85%
03:00 +5°C° 0.1 mm 1 mps 741 mmHg 86%
04:00 +5°C° 0.1 mm 1 mps 741 mmHg 87%
05:00 +5°C° 0.1 mm 1 mps 740 mmHg 88%
06:00 +4°C° 0 mm 2 mps 740 mmHg 83%
07:00 +5°C° 0 mm 2 mps 740 mmHg 77%
08:00 +5°C° 0 mm 3 mps 740 mmHg 72%
09:00 +5°C° 0.1 mm 3 mps 740 mmHg 65%
10:00 +7°C° 0.1 mm 3 mps 740 mmHg 58%
11:00 +7°C° 0.1 mm 4 mps 741 mmHg 51%
12:00 +7°C° 0 mm 4 mps 740 mmHg 48%
13:00 +8°C° 0 mm 4 mps 740 mmHg 44%
14:00 +8°C° 0 mm 4 mps 740 mmHg 40%
15:00 +8°C° 0 mm 4 mps 740 mmHg 43%
16:00 +7°C° 0 mm 4 mps 740 mmHg 45%
17:00 +7°C° 0 mm 4 mps 740 mmHg 48%
18:00 +5°C° 0 mm 3 mps 740 mmHg 56%
19:00 +5°C° 0 mm 2 mps 741 mmHg 64%
20:00 +3°C° 0 mm 2 mps 741 mmHg 72%
21:00 +3°C° 0 mm 2 mps 741 mmHg 74%
22:00 +2°C° 0 mm 2 mps 741 mmHg 77%
23:00 +1°C° 0 mm 2 mps 741 mmHg 79%

25 April, Sunday

Time Temperature Precipitation Wind Pressure Humidity
00:00 +1°C° 0 mm 2 mps 741 mmHg 82%
01:00 -1°C° 0 mm 2 mps 741 mmHg 84%
02:00 -1°C° 0 mm 2 mps 741 mmHg 86%
03:00 -1°C° 0 mm 2 mps 741 mmHg 87%
04:00 -1°C° 0 mm 2 mps 741 mmHg 88%
05:00 -1°C° 0 mm 2 mps 741 mmHg 89%
06:00 +2°C° 0 mm 2 mps 741 mmHg 82%
07:00 +3°C° 0 mm 2 mps 741 mmHg 75%
08:00 +4°C° 0 mm 3 mps 741 mmHg 68%
09:00 +4°C° 0.2 mm 3 mps 741 mmHg 63%
10:00 +5°C° 0.2 mm 3 mps 741 mmHg 59%
11:00 +7°C° 0.2 mm 3 mps 741 mmHg 54%
12:00 +7°C° 0.3 mm 3 mps 741 mmHg 52%
13:00 +8°C° 0.3 mm 3 mps 741 mmHg 49%
14:00 +8°C° 0.3 mm 3 mps 741 mmHg 47%
15:00 +8°C° 0.2 mm 3 mps 741 mmHg 51%
16:00 +7°C° 0.2 mm 3 mps 741 mmHg 54%
17:00 +7°C° 0.2 mm 3 mps 741 mmHg 58%
18:00 +4°C° 0 mm 3 mps 742 mmHg 66%
19:00 +4°C° 0 mm 2 mps 742 mmHg 74%
20:00 +2°C° 0 mm 2 mps 742 mmHg 82%
21:00 +2°C° 0 mm 2 mps 742 mmHg 84%
22:00 +1°C° 0 mm 2 mps 742 mmHg 86%
23:00 +1°C° 0 mm 2 mps 743 mmHg 88%
Show more